{"data":{"norad_id":45217,"epoch":"2026-05-25T01:56:44.320992Z","epoch_age_seconds":67446,"freshness":"FRESH","line1":"1 45217U 20012AR  26145.08106853  .00040390  00000+0  12266-2 0  9997","line2":"2 45217  53.1589  28.5569 0002166 125.3595 234.7610 15.33709102346863","mean_motion":15.33709102,"eccentricity":0.0002166,"inclination_deg":53.1589,"raan_deg":28.5569,"arg_perigee_deg":125.3595,"mean_anomaly_deg":234.761,"bstar":0.0012266,"rev_number":34686,"period_min":93.89003417416,"perigee_km":463.27533454849,"apogee_km":466.23967644827,"semimajor_km":6842.8945054984,"source":"CELESTRAK","updated_at":"2026-05-25T13:38:16.383937Z"}}